| time (UTC) | temp F | wind direction | speed knots | gust knots | rain 1hr in | rain 24hr in | rain mn in | humidity % | barometer mb |
| 20260504050508 | 40 | 50 | 0.0 | 0.0 | 0.00 | 0.00 | 0.00 | 84 | 1019.2 |
| 20260504050022 | 40 | 50 | 0.0 | 0.9 | 0.00 | 0.00 | 0.00 | 85 | 1019.2 |
| 20260504045509 | 40 | 50 | 0.0 | 0.9 | 0.00 | 0.00 | 0.00 | 84 | 1019.1 |
| 20260504045014 | 40 | 50 | 0.0 | 0.0 | 0.00 | 0.00 | 0.00 | 84 | 1019.1 |
| 20260504044525 | 40 | 50 | 0.0 | 0.0 | 0.00 | 0.00 | 0.00 | 83 | 1019.1 |
| 20260504044009 | 40 | 50 | 0.0 | 1.7 | 0.00 | 0.00 | 0.00 | 83 | 1019.1 |
| 20260504043507 | 40 | 50 | 0.0 | 1.7 | 0.00 | 0.00 | 0.00 | 82 | 1019.0 |
| 20260504043020 | 41 | 50 | 0.0 | 1.7 | 0.00 | 0.00 | 0.00 | 82 | 1018.9 |
| 20260504042509 | 41 | 50 | 0.0 | 1.7 | 0.00 | 0.00 | 0.00 | 81 | 1018.9 |
| 20260504042001 | 41 | 50 | 0.0 | 0.0 | 0.00 | 0.00 | 0.00 | 80 | 1018.9 |
| 20260504041505 | 42 | 50 | 0.0 | 0.9 | 0.00 | 0.00 | 0.00 | 80 | 1018.9 |
| 20260504041005 | 42 | 50 | 0.0 | 0.9 | 0.00 | 0.00 | 0.00 | 80 | 1018.8 |
| 20260504040505 | 42 | 50 | 0.0 | 0.9 | 0.00 | 0.00 | 0.00 | 79 | 1018.8 |
| 20260504040011 | 43 | 50 | 0.0 | 1.7 | 0.00 | 0.00 | 0.00 | 77 | 1018.8 |
| 20260504035507 | 43 | 50 | 0.0 | 1.7 | 0.00 | 0.00 | 0.00 | 76 | 1018.7 |
| 20260504035007 | 44 | 50 | 0.9 | 1.7 | 0.00 | 0.00 | 0.00 | 75 | 1018.6 |
| 20260504034522 | 44 | 63 | 0.9 | 2.6 | 0.00 | 0.00 | 0.00 | 74 | 1018.5 |
| 20260504034003 | 44 | 92 | 1.7 | 3.5 | 0.00 | 0.00 | 0.00 | 73 | 1018.4 |
| 20260504033504 | 45 | 99 | 1.7 | 3.5 | 0.00 | 0.00 | 0.00 | 73 | 1018.5 |
| 20260504033012 | 44 | 101 | 2.6 | 3.5 | 0.00 | 0.00 | 0.00 | 73 | 1018.5 |
| 20260504032503 | 44 | 85 | 0.9 | 2.6 | 0.00 | 0.00 | 0.00 | 74 | 1018.6 |
| 20260504032004 | 44 | 121 | 1.7 | 2.6 | 0.00 | 0.00 | 0.00 | 74 | 1018.6 |
| 20260504031516 | 45 | 113 | 0.9 | 1.7 | 0.00 | 0.00 | 0.00 | 73 | 1018.6 |
| 20260504031007 | 44 | 71 | 0.9 | 1.7 | 0.00 | 0.00 | 0.00 | 73 | 1018.6 |
| 20260504030510 | 44 | 98 | 0.9 | 1.7 | 0.00 | 0.00 | 0.00 | 73 | 1018.6 |
| 20260504030003 | 44 | 145 | 0.0 | 2.6 | 0.00 | 0.00 | 0.00 | 73 | 1018.6 |
| 20260504025502 | 44 | 103 | 0.0 | 2.6 | 0.00 | 0.00 | 0.00 | 74 | 1018.6 |
| 20260504025004 | 44 | 115 | 0.9 | 2.6 | 0.00 | 0.00 | 0.00 | 74 | 1018.6 |
| 20260504024512 | 44 | 109 | 0.0 | 2.6 | 0.00 | 0.00 | 0.00 | 73 | 1018.7 |
| 20260504024006 | 44 | 109 | 0.0 | 2.6 | 0.00 | 0.00 | 0.00 | 73 | 1018.7 |
| 20260504023506 | 45 | 109 | 0.0 | 1.7 | 0.00 | 0.00 | 0.00 | 73 | 1018.7 |
| 20260504023019 | 45 | 109 | 0.0 | 1.7 | 0.00 | 0.00 | 0.00 | 72 | 1018.7 |
| 20260504022508 | 45 | 109 | 0.9 | 1.7 | 0.00 | 0.00 | 0.00 | 71 | 1018.7 |
| 20260504022004 | 46 | 109 | 0.0 | 1.7 | 0.00 | 0.00 | 0.00 | 70 | 1018.6 |
| 20260504021509 | 46 | 109 | 0.0 | 1.7 | 0.00 | 0.00 | 0.00 | 69 | 1018.5 |
| 20260504021003 | 47 | 111 | 0.9 | 1.7 | 0.00 | 0.00 | 0.00 | 69 | 1018.3 |
| 20260504020504 | 47 | 116 | 0.0 | 1.7 | 0.00 | 0.00 | 0.00 | 68 | 1018.3 |
| 20260504020020 | 47 | 116 | 0.0 | 1.7 | 0.00 | 0.00 | 0.00 | 67 | 1018.3 |
| 20260504015507 | 47 | 116 | 0.0 | 0.0 | 0.00 | 0.00 | 0.00 | 66 | 1018.2 |
| 20260504015006 | 48 | 116 | 0.0 | 0.0 | 0.00 | 0.00 | 0.00 | 66 | 1018.1 |
| 20260504014522 | 48 | 116 | 0.0 | 1.7 | 0.00 | 0.00 | 0.00 | 66 | 1018.1 |
| 20260504014002 | 48 | 116 | 0.0 | 1.7 | 0.00 | 0.00 | 0.00 | 65 | 1018.2 |
| 20260504013505 | 48 | 115 | 0.0 | 1.7 | 0.00 | 0.00 | 0.00 | 64 | 1018.2 |
| 20260504013011 | 49 | 107 | 0.9 | 1.7 | 0.00 | 0.00 | 0.00 | 63 | 1018.1 |
| 20260504012506 | 50 | 92 | 0.9 | 1.7 | 0.00 | 0.00 | 0.00 | 60 | 1018.1 |
| 20260504012007 | 51 | 102 | 0.0 | 1.7 | 0.00 | 0.00 | 0.00 | 59 | 1018.1 |
| 20260504011519 | 52 | 102 | 0.9 | 1.7 | 0.00 | 0.00 | 0.00 | 55 | 1018.0 |
| 20260504011007 | 53 | 81 | 0.0 | 1.7 | 0.00 | 0.00 | 0.00 | 53 | 1018.0 |
| 20260504010514 | 54 | 321 | 0.0 | 1.7 | 0.00 | 0.00 | 0.00 | 50 | 1017.9 |
| 20260504010004 | 55 | 312 | 0.0 | 1.7 | 0.00 | 0.00 | 0.00 | 46 | 1017.7 |
| 20260504005504 | 55 | 321 | 0.0 | 1.7 | 0.00 | 0.00 | 0.00 | 46 | 1017.7 |
| 20260504005003 | 55 | 321 | 0.0 | 1.7 | 0.00 | 0.00 | 0.00 | 45 | 1017.6 |
| 20260504004532 | 55 | 308 | 0.9 | 1.7 | 0.00 | 0.00 | 0.00 | 45 | 1017.5 |
| 20260504004006 | 56 | 298 | 0.0 | 1.7 | 0.00 | 0.00 | 0.00 | 46 | 1017.4 |
| 20260504003507 | 57 | 292 | 0.0 | 1.7 | 0.00 | 0.00 | 0.00 | 44 | 1017.4 |
| 20260504003019 | 57 | 302 | 0.0 | 1.7 | 0.00 | 0.00 | 0.00 | 43 | 1017.4 |
| 20260504002507 | 58 | 302 | 0.0 | 1.7 | 0.00 | 0.00 | 0.00 | 42 | 1017.4 |
| 20260504002002 | 58 | 302 | 0.9 | 1.7 | 0.00 | 0.00 | 0.00 | 41 | 1017.3 |
| 20260504001523 | 59 | 208 | 0.9 | 1.7 | 0.00 | 0.00 | 0.00 | 39 | 1017.4 |
| 20260504001003 | 59 | 208 | 0.0 | 2.6 | 0.00 | 0.00 | 0.00 | 40 | 1017.3 |
| 20260504000509 | 59 | 274 | 0.9 | 2.6 | 0.00 | 0.00 | 0.00 | 39 | 1017.3 |
| 20260504000016 | 60 | 317 | 0.9 | 2.6 | 0.00 | 0.00 | 0.00 | 38 | 1017.3 |
| 20260503235506 | 60 | 128 | 0.0 | 3.5 | 0.00 | 0.00 | 0.00 | 39 | 1017.4 |
| 20260503235007 | 60 | 284 | 0.9 | 4.3 | 0.00 | 0.00 | 0.00 | 39 | 1017.3 |
| 20260503234527 | 61 | 251 | 0.9 | 7.0 | 0.00 | 0.00 | 0.00 | 39 | 1017.3 |
| 20260503234003 | 62 | 271 | 3.5 | 7.0 | 0.00 | 0.00 | 0.00 | 38 | 1017.3 |
| 20260503233504 | 62 | 284 | 0.9 | 4.3 | 0.00 | 0.00 | 0.00 | 40 | 1017.3 |
| 20260503233013 | 63 | 289 | 0.9 | 4.3 | 0.00 | 0.00 | 0.00 | 39 | 1017.2 |
| 20260503232507 | 63 | 261 | 1.7 | 6.1 | 0.00 | 0.00 | 0.00 | 39 | 1017.2 |
| 20260503232007 | 63 | 250 | 1.7 | 6.1 | 0.00 | 0.00 | 0.00 | 39 | 1017.2 |
| 20260503231522 | 63 | 340 | 1.7 | 6.1 | 0.00 | 0.00 | 0.00 | 39 | 1017.2 |
| 20260503231008 | 64 | 300 | 1.7 | 8.7 | 0.00 | 0.00 | 0.00 | 39 | 1017.1 |
| 20260503230508 | 64 | 315 | 1.7 | 8.7 | 0.00 | 0.00 | 0.00 | 38 | 1017.1 |
| 20260503230008 | 64 | 267 | 3.5 | 7.8 | 0.00 | 0.00 | 0.00 | 37 | 1017.1 |
| 20260503225503 | 64 | 270 | 1.7 | 7.8 | 0.00 | 0.00 | 0.00 | 37 | 1017.1 |
| 20260503225006 | 64 | 225 | 2.6 | 7.0 | 0.00 | 0.00 | 0.00 | 36 | 1017.1 |
| 20260503224513 | 64 | 257 | 0.9 | 7.0 | 0.00 | 0.00 | 0.00 | 39 | 1017.1 |
| 20260503224008 | 65 | 252 | 3.5 | 7.0 | 0.00 | 0.00 | 0.00 | 36 | 1017.1 |
| 20260503223508 | 65 | 316 | 2.6 | 6.1 | 0.00 | 0.00 | 0.00 | 38 | 1017.1 |
| 20260503223023 | 65 | 237 | 2.6 | 6.1 | 0.00 | 0.00 | 0.00 | 36 | 1017.1 |
| 20260503222507 | 65 | 350 | 2.6 | 6.1 | 0.00 | 0.00 | 0.00 | 36 | 1017.1 |
| 20260503222003 | 66 | 5 | 3.5 | 6.1 | 0.00 | 0.00 | 0.00 | 36 | 1017.1 |
| 20260503221510 | 66 | 209 | 2.6 | 7.8 | 0.00 | 0.00 | 0.00 | 36 | 1017.1 |
| 20260503221009 | 66 | 264 | 2.6 | 7.8 | 0.00 | 0.00 | 0.00 | 35 | 1017.1 |
| 20260503220510 | 67 | 286 | 2.6 | 5.2 | 0.00 | 0.00 | 0.00 | 37 | 1017.1 |
| 20260503220029 | 67 | 239 | 0.9 | 7.0 | 0.00 | 0.00 | 0.00 | 36 | 1017.2 |
| 20260503215507 | 67 | 275 | 0.9 | 7.0 | 0.00 | 0.00 | 0.00 | 36 | 1017.2 |
| 20260503215012 | 67 | 212 | 2.6 | 7.8 | 0.00 | 0.00 | 0.00 | 36 | 1017.2 |
| 20260503214536 | 66 | 304 | 3.5 | 7.8 | 0.00 | 0.00 | 0.00 | 34 | 1017.2 |
| 20260503214003 | 67 | 288 | 2.6 | 7.8 | 0.00 | 0.00 | 0.00 | 33 | 1017.3 |
| 20260503213506 | 67 | 328 | 2.6 | 7.8 | 0.00 | 0.00 | 0.00 | 35 | 1017.2 |
| 20260503213027 | 67 | 318 | 3.5 | 7.0 | 0.00 | 0.00 | 0.00 | 34 | 1017.2 |
| 20260503212507 | 67 | 5 | 1.7 | 5.2 | 0.00 | 0.00 | 0.00 | 35 | 1017.2 |
| 20260503212015 | 67 | 53 | 0.9 | 6.1 | 0.00 | 0.00 | 0.00 | 30 | 1017.3 |
| 20260503211523 | 67 | 263 | 0.9 | 6.1 | 0.00 | 0.00 | 0.00 | 33 | 1017.4 |
| 20260503211013 | 67 | 317 | 1.7 | 6.1 | 0.00 | 0.00 | 0.00 | 35 | 1017.4 |
| 20260503210510 | 67 | 290 | 1.7 | 6.1 | 0.00 | 0.00 | 0.00 | 33 | 1017.5 |
| 20260503210014 | 67 | 278 | 1.7 | 6.1 | 0.00 | 0.00 | 0.00 | 34 | 1017.5 |
| 20260503205509 | 67 | 254 | 0.9 | 6.1 | 0.00 | 0.00 | 0.00 | 34 | 1017.6 |
| 20260503205007 | 67 | 28 | 1.7 | 7.0 | 0.00 | 0.00 | 0.00 | 35 | 1017.6 |
| 20260503204525 | 67 | 240 | 3.5 | 7.0 | 0.00 | 0.00 | 0.00 | 34 | 1017.7 |
| 20260503204010 | 66 | 175 | 0.9 | 7.0 | 0.00 | 0.00 | 0.00 | 32 | 1017.8 |
| 20260503203511 | 66 | 5 | 2.6 | 5.2 | 0.00 | 0.00 | 0.00 | 33 | 1017.8 |
| 20260503203025 | 66 | 317 | 2.6 | 5.2 | 0.00 | 0.00 | 0.00 | 33 | 1018.0 |
| 20260503202518 | 66 | 338 | 1.7 | 6.1 | 0.00 | 0.00 | 0.00 | 37 | 1018.0 |
| 20260503202006 | 66 | 293 | 1.7 | 6.1 | 0.00 | 0.00 | 0.00 | 33 | 1018.1 |
| 20260503201514 | 66 | 277 | 2.6 | 6.1 | 0.00 | 0.00 | 0.00 | 33 | 1018.2 |
| 20260503201009 | 66 | 82 | 2.6 | 5.2 | 0.00 | 0.00 | 0.00 | 31 | 1018.2 |
| 20260503200510 | 66 | 10 | 0.9 | 7.8 | 0.00 | 0.00 | 0.00 | 37 | 1018.3 |
| 20260503200023 | 65 | 210 | 1.7 | 7.8 | 0.00 | 0.00 | 0.00 | 33 | 1018.4 |
| 20260503195508 | 65 | 211 | 4.3 | 7.8 | 0.00 | 0.00 | 0.00 | 36 | 1018.5 |
| 20260503195012 | 65 | 215 | 3.5 | 9.6 | 0.00 | 0.00 | 0.00 | 34 | 1018.6 |
| 20260503194529 | 65 | 296 | 0.9 | 9.6 | 0.00 | 0.00 | 0.00 | 33 | 1018.6 |
| 20260503194006 | 65 | 227 | 2.6 | 7.8 | 0.00 | 0.00 | 0.00 | 34 | 1018.7 |
| 20260503193506 | 65 | 245 | 3.5 | 9.6 | 0.00 | 0.00 | 0.00 | 34 | 1018.8 |
| 20260503193017 | 64 | 230 | 1.7 | 9.6 | 0.00 | 0.00 | 0.00 | 32 | 1018.9 |
| 20260503192508 | 64 | 346 | 2.6 | 9.6 | 0.00 | 0.00 | 0.00 | 32 | 1018.9 |
| 20260503192007 | 64 | 226 | 5.2 | 9.6 | 0.00 | 0.00 | 0.00 | 34 | 1019.1 |
| 20260503191524 | 64 | 202 | 5.2 | 11.3 | 0.00 | 0.00 | 0.00 | 38 | 1019.1 |
| 20260503191009 | 64 | 213 | 2.6 | 11.3 | 0.00 | 0.00 | 0.00 | 37 | 1019.1 |
| 20260503190507 | 64 | 146 | 3.5 | 9.6 | 0.00 | 0.00 | 0.00 | 39 | 1019.2 |
| 20260503190016 | 64 | 336 | 1.7 | 8.7 | 0.00 | 0.00 | 0.00 | 38 | 1019.3 |
| 20260503185506 | 64 | 249 | 2.6 | 8.7 | 0.00 | 0.00 | 0.00 | 37 | 1019.2 |
| 20260503185008 | 64 | 261 | 4.3 | 8.7 | 0.00 | 0.00 | 0.00 | 38 | 1019.2 |
| 20260503184524 | 64 | 201 | 3.5 | 6.1 | 0.00 | 0.00 | 0.00 | 39 | 1019.3 |
| 20260503184009 | 63 | 215 | 4.3 | 7.0 | 0.00 | 0.00 | 0.00 | 39 | 1019.3 |
| 20260503183508 | 63 | 272 | 3.5 | 9.6 | 0.00 | 0.00 | 0.00 | 35 | 1019.4 |
| 20260503183034 | 63 | 274 | 5.2 | 9.6 | 0.00 | 0.00 | 0.00 | 36 | 1019.4 |
| 20260503182507 | 63 | 306 | 3.5 | 8.7 | 0.00 | 0.00 | 0.00 | 35 | 1019.4 |
| 20260503182006 | 62 | 254 | 3.5 | 7.0 | 0.00 | 0.00 | 0.00 | 38 | 1019.5 |
| 20260503181537 | 62 | 5 | 4.3 | 7.0 | 0.00 | 0.00 | 0.00 | 39 | 1019.5 |
| 20260503181007 | 62 | 315 | 3.5 | 8.7 | 0.00 | 0.00 | 0.00 | 41 | 1019.7 |
| 20260503180507 | 62 | 254 | 4.3 | 7.8 | 0.00 | 0.00 | 0.00 | 41 | 1019.7 |
| 20260503180015 | 61 | 352 | 2.6 | 6.1 | 0.00 | 0.00 | 0.00 | 42 | 1019.8 |
| 20260503175511 | 61 | 352 | 1.7 | 6.1 | 0.00 | 0.00 | 0.00 | 38 | 1019.8 |
| 20260503175002 | 61 | 10 | 1.7 | 5.2 | 0.00 | 0.00 | 0.00 | 38 | 1019.8 |
| 20260503174507 | 61 | 313 | 1.7 | 7.0 | 0.00 | 0.00 | 0.00 | 38 | 1019.8 |
| 20260503174005 | 61 | 300 | 4.3 | 7.0 | 0.00 | 0.00 | 0.00 | 39 | 1019.9 |
| 20260503173505 | 61 | 216 | 3.5 | 6.1 | 0.00 | 0.00 | 0.00 | 38 | 1020.0 |
| 20260503173009 | 60 | 279 | 1.7 | 6.1 | 0.00 | 0.00 | 0.00 | 45 | 1020.0 |
| 20260503172505 | 60 | 351 | 2.6 | 6.1 | 0.00 | 0.00 | 0.00 | 39 | 1020.1 |
| 20260503172006 | 60 | 224 | 1.7 | 6.1 | 0.00 | 0.00 | 0.00 | 36 | 1020.1 |
| 20260503171505 | 60 | 157 | 0.9 | 4.3 | 0.00 | 0.00 | 0.00 | 37 | 1020.2 |
| 20260503171003 | 60 | 156 | 0.9 | 4.3 | 0.00 | 0.00 | 0.00 | 38 | 1020.3 |
| 20260503170504 | 60 | 177 | 2.6 | 4.3 | 0.00 | 0.00 | 0.00 | 41 | 1020.3 |
| 20260503151005 | 54 | 320 | 1.7 | 5.2 | 0.00 | 0.00 | 0.00 | 53 | 1021.1 |
| 20260503150505 | 54 | 13 | 3.5 | 5.2 | 0.00 | 0.00 | 0.00 | 53 | 1021.1 |
| 20260503131007 | 48 | 346 | 0.9 | 2.6 | 0.00 | 0.00 | 0.00 | 78 | 1021.0 |
| 20260503130507 | 47 | 15 | 0.9 | 2.6 | 0.00 | 0.00 | 0.00 | 79 | 1021.0 |
| 20260503110510 | 36 | 55 | 0.9 | 3.5 | 0.00 | 0.00 | 0.00 | 94 | 1019.8 |
| 20260503090507 | 35 | 79 | 0.0 | 1.7 | 0.00 | 0.00 | 0.00 | 90 | 1018.6 |
| 20260503081507 | 36 | 121 | 0.0 | 1.7 | 0.00 | 0.00 | 0.00 | 90 | 1018.2 |
| 20260503081006 | 36 | 121 | 0.0 | 2.6 | 0.00 | 0.00 | 0.00 | 90 | 1018.2 |
| 20260503080504 | 36 | 80 | 0.9 | 2.6 | 0.00 | 0.00 | 0.00 | 91 | 1018.2 |
| 20260503072503 | 37 | 96 | 0.0 | 1.7 | 0.00 | 0.00 | 0.00 | 88 | 1018.0 |
| 20260503072009 | 37 | 96 | 0.9 | 1.7 | 0.00 | 0.00 | 0.00 | 88 | 1017.9 |
| 20260503071517 | 37 | 87 | 0.0 | 0.0 | 0.00 | 0.00 | 0.00 | 89 | 1017.8 |
| 20260503071005 | 37 | 87 | 0.0 | 0.0 | 0.00 | 0.00 | 0.00 | 89 | 1017.8 |
| 20260503070507 | 37 | 87 | 0.0 | 0.0 | 0.00 | 0.00 | 0.00 | 89 | 1017.7 |